When you browse on this site, cookies collect data to enhance your experience and personalize the content and advertising you see.
Visit our Privacy Policy to learn more. By continuing to use the site, you agree to this use of cookies and data.
  • In Latvia
  • List of Countries
  • For 7 days
  • Water Temperature
  • Weather Map
  • Weather Widgets
  • user-avatar
    Login

    Hourly Weather Konstantyna

    Today, 12 November, Tuesday

    Time Temperature Precipitation Wind Pressure Humidity
    00:00 +8°C° 0 mm 1 mps 698 mmHg 90%
    01:00 +8°C° 0 mm 1 mps 698 mmHg 92%
    02:00 +8°C° 0 mm 1 mps 697 mmHg 93%
    03:00 +8°C° 0 mm 1 mps 697 mmHg 94%
    04:00 +7°C° 1.3 mm 2 mps 697 mmHg 95%
    05:00 +8°C° 1.3 mm 2 mps 697 mmHg 95%
    06:00 +9°C° 1.3 mm 3 mps 697 mmHg 96%
    07:00 +8°C° 4.9 mm 5 mps 698 mmHg 95%
    08:00 +7°C° 4.9 mm 8 mps 698 mmHg 94%
    09:00 +8°C° 4.9 mm 10 mps 699 mmHg 94%
    10:00 +8°C° 0.4 mm 11 mps 699 mmHg 86%
    11:00 +8°C° 0.4 mm 12 mps 699 mmHg 78%
    12:00 +8°C° 0.4 mm 14 mps 700 mmHg 71%
    13:00 +8°C° 0.1 mm 13 mps 700 mmHg 71%
    14:00 +8°C° 0.1 mm 13 mps 700 mmHg 72%
    15:00 +7°C° 0.1 mm 12 mps 701 mmHg 72%
    16:00 +7°C° 0.1 mm 10 mps 701 mmHg 75%
    17:00 +7°C° 0.1 mm 8 mps 702 mmHg 79%
    18:00 +7°C° 0.1 mm 5 mps 702 mmHg 82%
    19:00 +7°C° 0.2 mm 5 mps 702 mmHg 83%
    20:00 +8°C° 0.2 mm 5 mps 703 mmHg 85%
    21:00 +8°C° 0.2 mm 4 mps 703 mmHg 86%
    22:00 +8°C° 0.1 mm 4 mps 703 mmHg 85%
    23:00 +8°C° 0.1 mm 4 mps 703 mmHg 85%

    Tomorrow, 13 November, Wednesday

    Time Temperature Precipitation Wind Pressure Humidity
    00:00 +8°C° 0.1 mm 4 mps 703 mmHg 84%
    01:00 +7°C° 0.1 mm 4 mps 703 mmHg 84%
    02:00 +8°C° 0.1 mm 3 mps 703 mmHg 85%
    03:00 +8°C° 0.1 mm 3 mps 703 mmHg 85%
    04:00 +7°C° 0 mm 3 mps 703 mmHg 85%
    05:00 +7°C° 0 mm 3 mps 703 mmHg 86%
    06:00 +5°C° 0 mm 3 mps 703 mmHg 86%
    07:00 +8°C° 0 mm 3 mps 704 mmHg 79%
    08:00 +9°C° 0 mm 3 mps 704 mmHg 71%
    09:00 +11°C° 0 mm 4 mps 704 mmHg 64%
    10:00 +12°C° 0 mm 4 mps 704 mmHg 59%
    11:00 +13°C° 0 mm 5 mps 704 mmHg 55%
    12:00 +14°C° 0 mm 5 mps 704 mmHg 50%
    13:00 +14°C° 0 mm 5 mps 704 mmHg 53%
    14:00 +14°C° 0 mm 5 mps 703 mmHg 55%
    15:00 +14°C° 0 mm 5 mps 703 mmHg 58%
    16:00 +13°C° 0 mm 5 mps 703 mmHg 61%
    17:00 +12°C° 0 mm 5 mps 703 mmHg 65%
    18:00 +12°C° 0 mm 5 mps 703 mmHg 68%
    19:00 +12°C° 0 mm 5 mps 703 mmHg 70%
    20:00 +12°C° 0 mm 5 mps 704 mmHg 72%
    21:00 +12°C° 0 mm 5 mps 704 mmHg 74%
    22:00 +11°C° 0.1 mm 4 mps 704 mmHg 78%
    23:00 +11°C° 0.1 mm 4 mps 704 mmHg 82%

    Day after tomorrow, 14 November, Thursday

    Time Temperature Precipitation Wind Pressure Humidity
    00:00 +11°C° 0.1 mm 3 mps 704 mmHg 86%
    01:00 +10°C° 0.2 mm 3 mps 705 mmHg 87%
    02:00 +10°C° 0.2 mm 2 mps 705 mmHg 88%
    03:00 +10°C° 0.2 mm 2 mps 705 mmHg 89%
    04:00 +9°C° 0 mm 2 mps 705 mmHg 89%
    05:00 +9°C° 0 mm 2 mps 705 mmHg 89%
    06:00 +8°C° 0 mm 2 mps 704 mmHg 89%
    07:00 +10°C° 0 mm 2 mps 705 mmHg 79%
    08:00 +12°C° 0 mm 2 mps 705 mmHg 70%
    09:00 +13°C° 0 mm 3 mps 705 mmHg 61%
    10:00 +14°C° 0 mm 4 mps 705 mmHg 55%
    11:00 +15°C° 0 mm 5 mps 705 mmHg 50%
    12:00 +17°C° 0 mm 6 mps 704 mmHg 45%
    13:00 +16°C° 0 mm 6 mps 704 mmHg 48%
    14:00 +16°C° 0 mm 6 mps 703 mmHg 51%
    15:00 +16°C° 0 mm 7 mps 703 mmHg 54%
    16:00 +15°C° 0 mm 5 mps 703 mmHg 59%
    17:00 +13°C° 0 mm 4 mps 702 mmHg 63%
    18:00 +12°C° 0 mm 3 mps 702 mmHg 67%
    19:00 +12°C° 0 mm 3 mps 702 mmHg 68%
    20:00 +12°C° 0 mm 3 mps 702 mmHg 68%
    21:00 +12°C° 0 mm 2 mps 702 mmHg 68%
    22:00 +11°C° 0 mm 3 mps 702 mmHg 68%
    23:00 +11°C° 0 mm 3 mps 702 mmHg 68%

    15 November, Friday

    Time Temperature Precipitation Wind Pressure Humidity
    00:00 +11°C° 0 mm 3 mps 702 mmHg 68%
    01:00 +11°C° 0 mm 3 mps 702 mmHg 69%
    02:00 +10°C° 0 mm 3 mps 702 mmHg 69%
    03:00 +10°C° 0 mm 2 mps 702 mmHg 69%
    04:00 +9°C° 0 mm 2 mps 702 mmHg 75%
    05:00 +10°C° 0 mm 1 mps 702 mmHg 80%
    06:00 +9°C° 0 mm 1 mps 702 mmHg 85%
    07:00 +10°C° 0 mm 1 mps 702 mmHg 79%
    08:00 +12°C° 0 mm 1 mps 703 mmHg 73%
    09:00 +13°C° 0 mm 1 mps 703 mmHg 67%
    10:00 +14°C° 0 mm 2 mps 703 mmHg 63%
    11:00 +15°C° 0 mm 2 mps 703 mmHg 59%
    12:00 +14°C° 0 mm 3 mps 703 mmHg 55%
    13:00 +14°C° 0.1 mm 3 mps 702 mmHg 55%
    14:00 +14°C° 0.1 mm 3 mps 702 mmHg 54%
    15:00 +14°C° 0.1 mm 3 mps 702 mmHg 54%
    16:00 +13°C° 0 mm 3 mps 702 mmHg 57%
    17:00 +13°C° 0 mm 2 mps 702 mmHg 59%
    18:00 +12°C° 0 mm 2 mps 703 mmHg 62%
    19:00 +12°C° 0 mm 2 mps 703 mmHg 63%
    20:00 +11°C° 0 mm 1 mps 703 mmHg 64%
    21:00 +11°C° 0 mm 1 mps 703 mmHg 65%
    22:00 +11°C° 0.1 mm 1 mps 703 mmHg 64%
    23:00 +10°C° 0.1 mm 1 mps 703 mmHg 63%

    16 November, Saturday

    Time Temperature Precipitation Wind Pressure Humidity
    00:00 +10°C° 0.1 mm 1 mps 703 mmHg 63%
    01:00 +9°C° 0.9 mm 2 mps 702 mmHg 70%
    02:00 +8°C° 0.9 mm 2 mps 702 mmHg 77%
    03:00 +7°C° 0.9 mm 2 mps 701 mmHg 84%
    04:00 +6°C° 2 mm 2 mps 701 mmHg 86%
    05:00 +7°C° 2 mm 1 mps 701 mmHg 88%
    06:00 +7°C° 2 mm 1 mps 700 mmHg 91%
    07:00 +7°C° 1.8 mm 1 mps 700 mmHg 91%
    08:00 +6°C° 1.8 mm 2 mps 700 mmHg 92%
    09:00 +6°C° 1.8 mm 2 mps 700 mmHg 92%
    10:00 +6°C° 1.6 mm 2 mps 699 mmHg 91%
    11:00 +6°C° 1.6 mm 2 mps 699 mmHg 91%
    12:00 +6°C° 1.6 mm 2 mps 699 mmHg 90%
    13:00 +4°C° 2 mm 3 mps 699 mmHg 91%
    14:00 +4°C° 2 mm 4 mps 699 mmHg 92%
    15:00 +3°C° 2 mm 5 mps 699 mmHg 93%
    16:00 +3°C° 1.4 mm 5 mps 699 mmHg 93%
    17:00 +5°C° 1.4 mm 5 mps 700 mmHg 93%
    18:00 +5°C° 1.4 mm 5 mps 701 mmHg 93%
    19:00 +5°C° 0.4 mm 5 mps 701 mmHg 90%
    20:00 +5°C° 0.4 mm 5 mps 702 mmHg 88%
    21:00 +5°C° 0.4 mm 5 mps 703 mmHg 85%
    22:00 +5°C° 0 mm 5 mps 703 mmHg 85%
    23:00 +5°C° 0 mm 4 mps 703 mmHg 85%

    17 November, Sunday

    Time Temperature Precipitation Wind Pressure Humidity
    00:00 +4°C° 0 mm 4 mps 704 mmHg 85%
    01:00 +4°C° 0 mm 4 mps 704 mmHg 85%
    02:00 +4°C° 0 mm 3 mps 704 mmHg 85%
    03:00 +4°C° 0 mm 3 mps 704 mmHg 85%
    04:00 +3°C° 0 mm 3 mps 705 mmHg 85%
    05:00 +3°C° 0 mm 3 mps 705 mmHg 85%
    06:00 +3°C° 0 mm 3 mps 705 mmHg 85%
    07:00 +4°C° 0 mm 3 mps 706 mmHg 79%
    08:00 +6°C° 0 mm 4 mps 707 mmHg 73%
    09:00 +7°C° 0 mm 5 mps 708 mmHg 67%
    10:00 +8°C° 0 mm 5 mps 708 mmHg 61%
    11:00 +10°C° 0 mm 4 mps 708 mmHg 55%
    12:00 +11°C° 0 mm 4 mps 708 mmHg 50%
    13:00 +10°C° 0 mm 5 mps 707 mmHg 50%
    14:00 +10°C° 0 mm 5 mps 707 mmHg 50%
    15:00 +10°C° 0 mm 5 mps 707 mmHg 49%
    16:00 +10°C° 0 mm 4 mps 707 mmHg 55%
    17:00 +8°C° 0 mm 4 mps 707 mmHg 61%
    18:00 +7°C° 0 mm 3 mps 707 mmHg 67%
    19:00 +7°C° 0 mm 3 mps 707 mmHg 68%
    20:00 +7°C° 0 mm 3 mps 707 mmHg 68%
    21:00 +7°C° 0 mm 2 mps 707 mmHg 68%
    22:00 +7°C° 0 mm 2 mps 707 mmHg 67%
    23:00 +7°C° 0 mm 3 mps 707 mmHg 66%
    Show more